[[{"header":{"parameterUnit":"m.s-1","parameterCategory":1,"la1":30.2991,"la2":30.254,"lo1":-89.0895,"lo2":-89.0444,"dy":0.0017,"dx":0.0017,"nx":28,"ny":28,"refTime":"2026-01-10T09:00:00:Z","depth":0,"parameterNumber":2,"parameterNumberName":"U-component_of_WINDS"},"data":[0,0,0,0,0,0,0,0,0,0,0,0,0,0,0,0,0,0,0,0,0,0,0,0,0,0,0,0,0,0,0,0,0,0,0,0,0,0,0,0,0,0,0,0,0,0,0,0,0,0,0,0,0,0,0,0,0,0,0.1787,0.1787,0,0.1747,0.1746,0.1746,0.1746,0.1746,0.1747,0.1747,0.1704,0.1702,0.1701,0,0,0,0,0,0,0,0,0,0,0,0,0,0.1863,0.1861,0.1787,0.1787,0.1786,0.1747,0.1746,0.1746,0.1746,0.1746,0.1747,0.1748,0.1704,0.1702,0.17,0,0,0,0,0,0,0,0,0,0,0,0,0,0.1827,0.1861,0.1787,0.1781,0.1781,0.1747,0.1746,0.1746,0.1746,0.1746,0.1747,0.1748,0.1705,0.1703,0.17,0.1669,0,0,0.1693,0.1691,0,0,0,0,0,0,0,0,0.1829,0.1824,0.1783,0.1782,0.1781,0.1752,0.1757,0.172,0.1745,0.1759,0.1747,0.1748,0.1719,0.1716,0.1706,0.1667,0.1665,0.1692,0.1691,0.169,0.1689,0,0,0,0,0,0,0,0.1831,0.1826,0.1771,0.1782,0.1781,0.178,0.1776,0.175,0.1735,0.1758,0.1758,0.1753,0.1719,0.1709,0.1705,0.1664,0.1692,0.169,0.1689,0.1688,0.1598,0.1597,0,0,0,0,0,0,0.1835,0.1828,0.1772,0.177,0.1807,0.1778,0.1774,0.1761,0.1735,0.1732,0.1752,0.1753,0.1712,0.1708,0.1704,0.1665,0.169,0.1687,0.1686,0.1599,0.1598,0.1597,0,0,0,0,0,0,0.1837,0.183,0.1774,0.1799,0.1792,0.1776,0.1762,0.1759,0.1749,0.1731,0.1728,0.1745,0.1713,0.1707,0.1678,0.1664,0.1686,0.1684,0.16,0.1599,0.1598,0.1589,0,0,0,0,0,0,0.1839,0.1831,0.1819,0.1799,0.179,0.1749,0.1761,0.1758,0.1745,0.1746,0.1723,0.172,0.1713,0.1682,0.1675,0.1661,0.1682,0.1601,0.16,0.1598,0.159,0.1588,0.1585,0,0,0,0,0,0.1842,0.1818,0.1819,0.1812,0.1775,0.1749,0.1744,0.1736,0.1744,0.1732,0.1721,0.1721,0.1667,0.1679,0.1672,0.1656,0.1602,0.16,0.1598,0.1592,0.1588,0.1585,0,0,0,0,0,0,0.1836,0.1815,0.1816,0.1784,0.1768,0.1749,0.1733,0.1733,0.1714,0.1715,0.1706,0.1701,0.1672,0.1661,0.1675,0.1625,0.1635,0.1632,0.1633,0.1629,0.1627,0.1629,0.168,0,0,0,0,0,0.1831,0.1812,0.1794,0.1768,0.176,0.1748,0.1736,0.1732,0.1715,0.1708,0.1694,0.1677,0.1656,0.1642,0.1622,0.159,0.1584,0.1576,0.1573,0.1571,0.1567,0.1549,0.1545,0.159,0.1591,0.1591,0,0,0.1821,0.1807,0.1795,0.1767,0.1754,0.1733,0.1742,0.172,0.1705,0.1704,0.1676,0.1665,0.1646,0.1615,0.16,0.1605,0.1554,0.1568,0.1567,0.1564,0.1547,0.1543,0.1539,0.1589,0.1589,0.159,0,0,0.1791,0.1779,0.1756,0.1743,0.1724,0.1716,0.1711,0.1692,0.1685,0.1657,0.1656,0.1638,0.1602,0.1588,0.1576,0.1543,0.1542,0.1536,0.1522,0.1504,0.1501,0.1498,0.1485,0.1481,0.1533,0.1533,0.1533,0,0.178,0.1749,0.1744,0.1722,0.1709,0.171,0.1686,0.1674,0.1649,0.164,0.1646,0.1602,0.1588,0.1554,0.1546,0.1537,0.153,0.1538,0.1502,0.1499,0.1496,0.1484,0.1479,0.1533,0.1533,0.1533,0.1533,0,0.1737,0.1716,0.17,0.1677,0.1663,0.164,0.1631,0.1617,0.1615,0.1606,0.1578,0.1562,0.1539,0.1531,0.1528,0.1496,0.15,0.1504,0.1514,0.1491,0.1479,0.1475,0.1532,0.1532,0.1532,0.1532,0,0,0.17,0.1676,0.167,0.1659,0.1639,0.1623,0.16,0.1579,0.1567,0.155,0.1531,0.1501,0.1505,0.1492,0.1488,0.1473,0.1447,0.1479,0.1478,0.1473,0.1411,0.1407,0.1402,0.1448,0.1447,0.1446,0.1413,0,0.1668,0.1629,0.1624,0.1588,0.1569,0.157,0.155,0.1535,0.1527,0.1509,0.15,0.1479,0.1487,0.1479,0.1464,0.1453,0.1434,0.1456,0.1429,0.1428,0.1432,0.1396,0.1392,0.1361,0.1408,0.1408,0.1407,0,0.1624,0.1607,0.157,0.1554,0.1545,0.1528,0.1508,0.1491,0.1474,0.147,0.1456,0.1454,0.143,0.1443,0.141,0.1425,0.1414,0.1407,0.1405,0.1401,0.1415,0.1391,0.1351,0.1346,0.14,0.1401,0.1401,0,0.1601,0.1569,0.1543,0.1534,0.1514,0.1501,0.1492,0.1477,0.1464,0.1447,0.1439,0.1419,0.1407,0.1392,0.1384,0.1394,0.1352,0.1364,0.1347,0.1347,0.1337,0.1337,0.1294,0.1331,0.1331,0.1332,0.1332,0,0.1564,0.1541,0.1532,0.1515,0.149,0.1485,0.146,0.1451,0.1438,0.142,0.1419,0.1402,0.1394,0.1376,0.137,0.1344,0.1339,0.1334,0.1332,0.1333,0.1334,0.1325,0.1326,0.133,0.1331,0.1331,0.1331,0,0.1532,0.1525,0.1497,0.1481,0.1476,0.1458,0.1444,0.1428,0.1421,0.1399,0.1393,0.1381,0.136,0.1352,0.1325,0.1321,0.1291,0.1292,0.1296,0.1296,0.1279,0.1281,0.1228,0.122,0.1264,0.1263,0.1263,0,0.1509,0.1492,0.1474,0.1463,0.1453,0.1434,0.1422,0.1417,0.1404,0.1384,0.1371,0.135,0.1333,0.1298,0.1287,0.1267,0.1267,0.125,0.1263,0.1265,0.1265,0.1266,0.1264,0.1247,0.1246,0.1246,0.1246,0,0.1468,0.1466,0.1448,0.143,0.1415,0.14,0.1386,0.1376,0.1368,0.1354,0.1333,0.1319,0.1293,0.1272,0.1252,0.1242,0.1242,0.1242,0.1237,0.1237,0.124,0.1237,0.1288,0.1242,0.1243,0.1243,0.1243,0.1243,0.1439,0.1424,0.141,0.139,0.1379,0.1366,0.135,0.1342,0.1324,0.1303,0.1301,0.1278,0.1263,0.1235,0.1225,0.1207,0.1211,0.1204,0.1202,0.12,0.1198,0.1244,0.1203,0.1203,0.1203,0.1203,0.1203,0,0.1398,0.1389,0.1371,0.1351,0.1336,0.134,0.1324,0.1311,0.1291,0.1277,0.126,0.1236,0.1216,0.1204,0.1184,0.1172,0.1171,0.1166,0.1166,0.1164,0.1196,0.1202,0.1167,0.1167,0.1167,0.1167,0.1167,0.1167,0.1374,0.1349,0.1345,0.1314,0.1305,0.1283,0.1274,0.1261,0.125,0.1223,0.1207,0.12,0.1187,0.1166,0.1148,0.1145,0.1137,0.1132,0.1129,0.1158,0.1162,0.1165,0.1171,0.113,0.113,0.1099,0.1098,0.1098]},{"header":{"parameterUnit":"m.s-1","parameterCategory":1,"la1":30.2991,"la2":30.254,"lo1":-89.0895,"lo2":-89.0444,"dy":0.0017,"dx":0.0017,"nx":28,"ny":28,"refTime":"2026-01-10T09:00:00:Z","depth":0,"parameterNumber":3,"parameterNumberName":"V-component_of_WINDS"},"data":[0,0,0,0,0,0,0,0,0,0,0,0,0,0,0,0,0,0,0,0,0,0,0,0,0,0,0,0,0,0,0,0,0,0,0,0,0,0,0,0,0,0,0,0,0,0,0,0,0,0,0,0,0,0,0,0,0,0,-6.999,-6.9991,0,-7.0139,-7.014,-7.0142,-7.0079,-7.0076,-7.0072,-7.0069,-7.0217,-7.0225,-7.0232,0,0,0,0,0,0,0,0,0,0,0,0,0,-6.9648,-6.9654,-6.9989,-6.9991,-6.9993,-7.0139,-7.0141,-7.0143,-7.008,-7.0076,-7.0071,-7.0067,-7.0215,-7.0224,-7.0232,0,0,0,0,0,0,0,0,0,0,0,0,0,-6.9796,-6.9656,-6.9989,-6.998,-6.998,-7.0138,-7.0141,-7.0143,-7.0081,-7.0076,-7.007,-7.0065,-7.0212,-7.0223,-7.0234,-7.0408,0,0,-7.0267,-7.0272,0,0,0,0,0,0,0,0,-6.9788,-6.9809,-6.9979,-6.9981,-6.9982,-7.0085,-7.0074,-7.0232,-7.0082,-7.0043,-7.0069,-7.0063,-7.0177,-7.0191,-7.0231,-7.0415,-7.0422,-7.0268,-7.0275,-7.0279,-7.0282,0,0,0,0,0,0,0,-6.9778,-6.9802,-7.0048,-6.9982,-6.9983,-6.9967,-6.9982,-7.0104,-7.0138,-7.0046,-7.0042,-7.006,-7.0177,-7.022,-7.0234,-7.0424,-7.0268,-7.0277,-7.0284,-7.0288,-7.0761,-7.0767,0,0,0,0,0,0,-6.9768,-6.9794,-7.0044,-7.0053,-6.987,-6.9978,-6.9995,-7.0057,-7.0137,-7.0144,-7.0065,-7.0057,-7.0204,-7.0221,-7.0239,-7.045,-7.0279,-7.0289,-7.0296,-7.0755,-7.0762,-7.0769,0,0,0,0,0,0,-6.9761,-6.9791,-7.0038,-6.9922,-6.9953,-6.9989,-7.006,-7.0063,-7.0106,-7.0151,-7.0156,-7.0103,-7.0201,-7.0223,-7.0367,-7.0454,-7.0294,-7.0304,-7.0748,-7.0757,-7.0766,-7.0873,0,0,0,0,0,0,-6.9751,-6.9788,-6.9856,-6.9925,-6.9959,-7.0165,-7.0065,-7.007,-7.0126,-7.0117,-7.0188,-7.0195,-7.0198,-7.0351,-7.0378,-7.0466,-7.0313,-7.074,-7.0752,-7.0763,-7.0862,-7.0885,-7.0904,0,0,0,0,0,-6.9739,-6.9879,-6.986,-6.989,-7.0044,-7.017,-7.019,-7.0192,-7.0133,-7.0201,-7.023,-7.0193,-7.044,-7.0367,-7.0396,-7.0489,-7.0735,-7.0749,-7.0762,-7.0853,-7.088,-7.0904,0,0,0,0,0,0,-6.9817,-6.9888,-6.9867,-7.0033,-7.0097,-7.016,-7.0245,-7.0221,-7.0301,-7.0289,-7.0287,-7.0304,-7.0453,-7.0485,-7.0402,-7.0663,-7.0578,-7.0598,-7.0637,-7.0664,-7.0685,-7.0674,-7.0322,0,0,0,0,0,-6.9854,-6.9952,-7.0007,-7.0149,-7.0182,-7.0208,-7.0263,-7.026,-7.0324,-7.035,-7.039,-7.0453,-7.0545,-7.0606,-7.0693,-7.0866,-7.0881,-7.0944,-7.0965,-7.0983,-7.1,-7.1096,-7.1125,-7.0813,-7.0813,-7.0813,0,0,-6.9931,-6.9981,-7.0043,-7.0166,-7.0214,-7.0315,-7.0231,-7.034,-7.0415,-7.0366,-7.0506,-7.0538,-7.0608,-7.0768,-7.084,-7.0799,-7.109,-7.1,-7.1013,-7.1022,-7.1113,-7.1142,-7.1169,-7.0822,-7.0821,-7.0819,0,0,-7.0123,-7.017,-7.0295,-7.0346,-7.0421,-7.0438,-7.0468,-7.0535,-7.0555,-7.0695,-7.0662,-7.0749,-7.0908,-7.096,-7.1008,-7.1221,-7.1191,-7.1249,-7.136,-7.1453,-7.1478,-7.15,-7.1578,-7.1605,-7.1267,-7.1267,-7.1267,0,-7.0208,-7.036,-7.0361,-7.0475,-7.053,-7.0492,-7.0618,-7.0667,-7.0766,-7.0805,-7.0758,-7.0958,-7.1002,-7.1175,-7.1227,-7.1266,-7.1301,-7.1242,-7.1474,-7.1496,-7.1517,-7.1591,-7.162,-7.1274,-7.1273,-7.1272,-7.1272,0,-7.0462,-7.0568,-7.0659,-7.0759,-7.0824,-7.0943,-7.0962,-7.1028,-7.1019,-7.104,-7.1184,-7.1237,-7.1335,-7.1375,-7.1366,-7.1548,-7.152,-7.1474,-7.1389,-7.1553,-7.1623,-7.1652,-7.1284,-7.1281,-7.1279,-7.1277,0,0,-7.0707,-7.0808,-7.0841,-7.0887,-7.0968,-7.105,-7.1167,-7.1265,-7.1322,-7.1392,-7.1491,-7.1627,-7.1585,-7.1639,-7.1636,-7.1717,-7.1886,-7.1661,-7.1663,-7.1703,-7.2091,-7.2126,-7.2159,-7.1866,-7.1871,-7.1875,-7.2085,0,-7.0907,-7.1115,-7.112,-7.131,-7.1408,-7.1375,-7.1477,-7.1537,-7.1561,-7.1647,-7.1672,-7.177,-7.1707,-7.174,-7.1819,-7.1849,-7.1964,-7.1833,-7.1958,-7.1962,-7.1943,-7.2195,-7.2233,-7.2429,-7.2112,-7.2117,-7.212,0,-7.1167,-7.1249,-7.145,-7.1519,-7.156,-7.1652,-7.1743,-7.1826,-7.1894,-7.1906,-7.1967,-7.1952,-7.2072,-7.1982,-7.2147,-7.2059,-7.2109,-7.2132,-7.2139,-7.2152,-7.2052,-7.2217,-7.2491,-7.2521,-7.2163,-7.216,-7.2156,0,-7.1329,-7.1488,-7.1629,-7.1669,-7.1752,-7.1818,-7.1856,-7.1919,-7.1978,-7.2057,-7.2096,-7.2187,-7.2237,-7.2308,-7.2318,-7.2251,-7.2484,-7.2395,-7.2497,-7.2498,-7.2549,-7.2546,-7.2837,-7.2579,-7.2579,-7.2578,-7.2577,0,-7.1552,-7.1677,-7.1703,-7.179,-7.1929,-7.1933,-7.207,-7.2102,-7.2159,-7.2251,-7.2226,-7.2313,-7.232,-7.241,-7.2418,-7.2554,-7.2576,-7.2589,-7.259,-7.2593,-7.2592,-7.2627,-7.2614,-7.2586,-7.2584,-7.2583,-7.2581,0,-7.1756,-7.1779,-7.1931,-7.1998,-7.2018,-7.2118,-7.2175,-7.2258,-7.228,-7.2397,-7.2425,-7.2458,-7.2563,-7.258,-7.2701,-7.2707,-7.2871,-7.2857,-7.2849,-7.2847,-7.295,-7.2941,-7.3276,-7.3321,-7.3031,-7.3034,-7.3036,0,-7.1898,-7.1993,-7.2072,-7.2133,-7.2175,-7.2273,-7.2334,-7.2342,-7.2406,-7.2492,-7.2565,-7.2667,-7.2749,-7.2917,-7.2952,-7.3045,-7.3034,-7.3145,-7.3048,-7.3048,-7.3038,-7.3034,-7.3044,-7.3164,-7.3168,-7.317,-7.3172,0,-7.2148,-7.2155,-7.2245,-7.234,-7.2414,-7.2488,-7.2558,-7.2609,-7.2626,-7.2699,-7.2807,-7.2871,-7.2997,-7.3099,-7.3192,-7.3229,-7.3205,-7.3202,-7.3232,-7.3236,-7.3228,-7.3236,-7.2902,-7.3195,-7.3193,-7.3191,-7.319,-7.3189,-7.2327,-7.2411,-7.248,-7.2582,-7.2636,-7.2703,-7.2785,-7.2818,-7.2908,-7.3013,-7.3011,-7.3129,-7.3195,-7.3318,-7.3362,-7.3454,-7.3418,-7.346,-7.3471,-7.3482,-7.3493,-7.3213,-7.3471,-7.347,-7.347,-7.3469,-7.3469,0,-7.2577,-7.2621,-7.2714,-7.2815,-7.2895,-7.2865,-7.2942,-7.3011,-7.3116,-7.3181,-7.3263,-7.3387,-7.3486,-7.353,-7.3627,-7.3693,-7.3684,-7.3718,-7.3714,-7.3724,-7.3518,-7.3484,-7.3724,-7.3724,-7.3724,-7.3724,-7.3724,-7.3724,-7.2717,-7.2859,-7.2875,-7.3043,-7.3085,-7.3203,-7.3249,-7.3311,-7.3363,-7.3504,-7.3587,-7.3615,-7.3672,-7.3773,-7.3863,-7.3873,-7.3911,-7.3951,-7.3956,-7.3763,-7.3738,-7.3713,-7.3682,-7.3959,-7.3959,-7.4154,-7.4156,-7.4157]}]]